Flag for U.S.A. Weather past 2 weeks in Lancaster, California, U.S.A.

Now
48 °F

Clear.


Feels Like: 48 °F
Forecast: 47 / 79 °F
Wind: No wind

Location: Lancaster / Fox Field


UV Index: 7 (High)

Visibility: 10 mi


Pressure: 29.98 "Hg

Humidity: 46%

Dew point: 28 °F

Location of LancasterLocation

Historic Weather in Lancaster

°F

Lancaster temperature yesterday

Maximum temperature yesterday: 72 °F (at 3:56 PM)
Minimum temperature yesterday: 45 °F (at 5:56 AM)
Average temperature yesterday: 58 °F

Past Weeks' High & Low Weather Summary

 TemperatureHumidityPressure
High86 °F (Apr 9, 1:56 PM)77% (Apr 18, 6:56 AM)30.17 "Hg (Apr 18, 6:56 AM)
Low41 °F (Apr 14, 5:56 AM)4% (Apr 9, 12:56 PM)29.72 "Hg (Apr 16, 4:56 PM)
Average65 °F31%29.92 "Hg
* Reported Apr 9 3:56 AM — Apr 24 3:56 AM, Lancaster, Weather by CustomWeather, © 2014

Note: Actual official high and low records may vary slightly from our data, if they occured in-between our weather recording intervals... More about our weather records

Advertising

Historic Weather Conditions — Data for Previous 24 hours

 ConditionsComfort  
Time TempWeatherWind HumidityBarometerVisibility
3:56 AM
Apr 24
48 °FClear.No wind46%29.98 "Hg10 mi
2:56 AM49 °FClear.3 mph44%29.98 "Hg10 mi
1:56 AM50 °FClear.5 mph41%29.99 "Hg10 mi
12:56 AM51 °FClear.7 mph38%30.00 "Hg10 mi
11:56 PM
Apr 23
52 °FClear.7 mph38%29.99 "Hg10 mi
10:56 PM53 °FClear.6 mph37%30.00 "Hg10 mi
9:56 PM55 °FClear.16 mph37%29.99 "Hg10 mi
8:56 PM55 °FClear.15 mph33%30.00 "Hg10 mi
7:56 PM57 °FSunny.16 mph31%29.97 "Hg10 mi
6:56 PM62 °FSunny.22 mph26%29.95 "Hg10 mi
5:56 PM67 °FSunny.23 mph20%29.93 "Hg10 mi
4:56 PM71 °FSunny.21 mph17%29.91 "Hg10 mi
3:56 PM72 °FSunny.3 mph10%29.92 "Hg10 mi
2:56 PM71 °FSunny.6 mph10%29.93 "Hg10 mi
1:56 PM70 °FSunny.8 mph11%29.96 "Hg10 mi
12:56 PM69 °FSunny.6 mph11%29.96 "Hg10 mi
11:56 AM67 °FSunny.9 mph13%29.98 "Hg10 mi
10:56 AM62 °FSunny.5 mph20%30.00 "Hg10 mi
9:56 AM60 °FSunny.6 mph25%30.00 "Hg10 mi
8:56 AM55 °FSunny.21 mph33%30.00 "Hg10 mi
7:56 AM50 °FSunny.18 mph43%30.00 "Hg10 mi
6:56 AM47 °FClear.14 mph52%29.99 "Hg10 mi
5:56 AM45 °FClear.22 mph56%29.95 "Hg10 mi
Weather by CustomWeather, © 2014

See weather overview